,,Stat6,,Stat2,,Stat8,,Stat9,,Stat10,,Wind1,,Wind1,
time,status,PA1M_AVG,status,PR1M_SUM,status,RH1M_AVG,status,SR1M_AVG,status,TA1M_AVG,status,W1dAve1m,status,W1sAve1m,
2006-03-03, 00:00:00,VALID,917.51,VALID,0,VALID,89.039,VALID,-0.118866,VALID,22.25,VALID,112,VALID,1.45996,
2006-03-03, 00:01:00,VALID,917.51,VALID,0,VALID,88.9106,VALID,-0.118866,VALID,22.2306,VALID,153,VALID,0.886209,
2006-03-03, 00:02:00,VALID,917.528,VALID,0,VALID,89.0937,VALID,-0.101885,VALID,22.2306,VALID,132,VALID,1.45094,
2006-03-03, 00:03:00,VALID,917.545,VALID,0,VALID,89.273,VALID,-0.118866,VALID,22.2109,VALID,157,VALID,1.43583,
2006-03-03, 00:04:00,VALID,917.557,VALID,0,VALID,89.4599,VALID,-0.118866,VALID,22.1882,VALID,132,VALID,1.3343,
2006-03-03, 00:05:00,VALID,917.563,VALID,0,VALID,89.5108,VALID,-0.118866,VALID,22.1702,VALID,138,VALID,2.08708,
2006-03-03, 00:06:00,VALID,917.563,VALID,0,VALID,89.7092,VALID,-0.118866,VALID,22.1371,VALID,127,VALID,1.33213,
2006-03-03, 00:07:00,VALID,917.563,VALID,0,VALID,89.8185,VALID,-0.101885,VALID,22.1109,VALID,121,VALID,1.44975,
2006-03-03, 00:08:00,VALID,917.537,VALID,0,VALID,90.1212,VALID,-0.0339617,VALID,22.0933,VALID,140,VALID,0.973474,
2006-03-03, 00:09:00,VALID,917.53,VALID,0,VALID,90.1568,VALID,0,VALID,22.0578,VALID,125,VALID,1.11476,
2006-03-03, 00:10:00,VALID,917.542,VALID,0,VALID,90.2928,VALID,0,VALID,22.0451,VALID,132,VALID,1.31715,
2006-03-03, 00:11:00,VALID,917.551,VALID,0,VALID,90.2915,VALID,-0.0169808,VALID,22.0354,VALID,99,VALID,1.16229,
2006-03-03, 00:12:00,VALID,917.564,VALID,0,VALID,90.1199,VALID,0,VALID,22.0155,VALID,82,VALID,1.68583,
2006-03-03, 00:13:00,VALID,917.577,VALID,0,VALID,90.35,VALID,0,VALID,22.0087,VALID,110,VALID,1.20139,
2006-03-03, 00:14:00,VALID,917.579,VALID,0,VALID,90.5471,VALID,0,VALID,21.9926,VALID,104,VALID,1.58327,
2006-03-03, 00:15:00,VALID,917.591,VALID,0,VALID,90.6946,VALID,0.0169808,VALID,21.967,VALID,102,VALID,1.3639,
2006-03-03, 00:16:00,VALID,917.59,VALID,0,VALID,90.7875,VALID,0,VALID,21.9373,VALID,62,VALID,1.7262,
2006-03-03, 00:17:00,VALID,917.594,VALID,0,VALID,91.071,VALID,0,VALID,21.9058,VALID,98,VALID,1.73666,
2006-03-03, 00:18:00,VALID,917.572,VALID,0,VALID,91.2669,VALID,0,VALID,21.8667,VALID,117,VALID,1.59866,
2006-03-03, 00:19:00,VALID,917.554,VALID,0,VALID,91.1944,VALID,-0.0169808,VALID,21.8476,VALID,118,VALID,2.40383,
2006-03-03, 00:20:00,VALID,917.534,VALID,0,VALID,90.8612,VALID,0.0169808,VALID,21.8339,VALID,102,VALID,1.99414,
2006-03-03, 00:21:00,VALID,917.528,VALID,0,VALID,91.0278,VALID,-0.0169808,VALID,21.8673,VALID,108,VALID,1.64444,
2006-03-03, 00:22:00,VALID,917.524,VALID,0,VALID,91.2262,VALID,0,VALID,21.8605,VALID,112,VALID,1.80551,
2006-03-03, 00:23:00,VALID,917.521,VALID,0,VALID,91.483,VALID,-0.0339617,VALID,21.8112,VALID,87,VALID,1.84135,
2006-03-03, 00:24:00,VALID,917.488,VALID,0,VALID,91.5708,VALID,-0.0509425,VALID,21.7794,VALID,82,VALID,1.38711,
2006-03-03, 00:25:00,VALID,917.488,VALID,0,VALID,91.3432,VALID,0,VALID,21.7471,VALID,94,VALID,2.14435,
2006-03-03, 00:26:00,VALID,917.48,VALID,0,VALID,90.7214,VALID,0,VALID,21.7277,VALID,79,VALID,2.25391,
2006-03-03, 00:27:00,VALID,917.465,VALID,0,VALID,90.6006,VALID,-0.0339617,VALID,21.7563,VALID,86,VALID,2.01563,
2006-03-03, 00:28:00,VALID,917.437,VALID,0,VALID,90.2814,VALID,0,VALID,21.7525,VALID,75,VALID,1.82122,
2006-03-03, 00:29:00,VALID,917.412,VALID,0,VALID,90.0983,VALID,-0.0509425,VALID,21.7565,VALID,87,VALID,1.97337,
2006-03-03, 00:30:00,VALID,917.413,VALID,0,VALID,90.1746,VALID,-0.0509425,VALID,21.7665,VALID,65,VALID,1.25312,
2006-03-03, 00:31:00,VALID,917.399,VALID,0,VALID,89.9838,VALID,-0.0339617,VALID,21.7339,VALID,83,VALID,2.13338,
2006-03-03, 00:32:00,VALID,917.406,VALID,0,VALID,89.7003,VALID,-0.0339617,VALID,21.7272,VALID,83,VALID,2.29611,
2006-03-03, 00:33:00,VALID,917.373,VALID,0,VALID,89.184,VALID,-0.0169808,VALID,21.7242,VALID,93,VALID,2.35556,
2006-03-03, 00:34:00,VALID,917.362,VALID,0,VALID,89.1357,VALID,0,VALID,21.7406,VALID,75,VALID,1.93083,
2006-03-03, 00:35:00,VALID,917.357,VALID,0,VALID,89.2895,VALID,-0.0169808,VALID,21.7439,VALID,84,VALID,1.56536,
2006-03-03, 00:36:00,VALID,917.344,VALID,0,VALID,88.9297,VALID,-0.0339617,VALID,21.7342,VALID,80,VALID,2.08696,
2006-03-03, 00:37:00,VALID,917.339,VALID,0,VALID,88.875,VALID,0,VALID,21.7474,VALID,105,VALID,1.60156,
2006-03-03, 00:38:00,VALID,917.341,VALID,0,VALID,88.5711,VALID,-0.0169808,VALID,21.728,VALID,73,VALID,1.96559,
2006-03-03, 00:39:00,VALID,917.341,VALID,0,VALID,88.5177,VALID,-0.0169808,VALID,21.7242,VALID,94,VALID,1.79046,
2006-03-03, 00:40:00,VALID,917.315,VALID,0,VALID,88.5418,VALID,-0.0339617,VALID,21.7107,VALID,81,VALID,1.48865,
2006-03-03, 00:41:00,VALID,917.319,VALID,0,VALID,88.51,VALID,0,VALID,21.7148,VALID,103,VALID,1.75254,
2006-03-03, 00:42:00,VALID,917.307,VALID,0,VALID,87.7992,VALID,-0.0169808,VALID,21.6825,VALID,99,VALID,2.29124,
2006-03-03, 00:43:00,VALID,917.298,VALID,0,VALID,87.976,VALID,0,VALID,21.7054,VALID,113,VALID,1.80469,
2006-03-03, 00:44:00,VALID,917.294,VALID,0,VALID,87.6453,VALID,-0.0169808,VALID,21.6886,VALID,101,VALID,2.07726,
2006-03-03, 00:45:00,VALID,917.275,VALID,0,VALID,87.6746,VALID,-0.0509425,VALID,21.6986,VALID,75,VALID,2.46641,
2006-03-03, 00:46:00,VALID,917.27,VALID,0,VALID,87.8691,VALID,-0.0169808,VALID,21.6827,VALID,63,VALID,2.22177,
2006-03-03, 00:47:00,VALID,917.238,VALID,0,VALID,88.0612,VALID,0,VALID,21.6601,VALID,78,VALID,1.74639,
2006-03-03, 00:48:00,VALID,917.236,VALID,0,VALID,88.1705,VALID,-0.0169808,VALID,21.621,VALID,113,VALID,2.30729,
2006-03-03, 00:49:00,VALID,917.211,VALID,0,VALID,88.14,VALID,-0.0339617,VALID,21.5561,VALID,99,VALID,2.07852,
2006-03-03, 00:50:00,VALID,917.188,VALID,0,VALID,87.4686,VALID,-0.0339617,VALID,21.5308,VALID,124,VALID,2.68501,
2006-03-03, 00:51:00,VALID,917.193,VALID,0,VALID,87.6212,VALID,-0.0169808,VALID,21.524,VALID,130,VALID,2.50729,
2006-03-03, 00:52:00,VALID,917.185,VALID,0,VALID,87.377,VALID,-0.0169808,VALID,21.5243,VALID,116,VALID,2.19893,
2006-03-03, 00:53:00,VALID,917.197,VALID,0,VALID,87.152,VALID,-0.0339617,VALID,21.4885,VALID,124,VALID,2.0952,
2006-03-03, 00:54:00,VALID,917.204,VALID,0,VALID,87.5055,VALID,-0.0339617,VALID,21.489,VALID,134,VALID,1.22727,
2006-03-03, 00:55:00,VALID,917.219,VALID,0,VALID,86.8366,VALID,-0.0339617,VALID,21.4699,VALID,130,VALID,2.26094,
2006-03-03, 00:56:00,VALID,917.22,VALID,0,VALID,85.8867,VALID,-0.0339617,VALID,21.457,VALID,102,VALID,1.56803,
2006-03-03, 00:57:00,VALID,917.228,VALID,0,VALID,86.2949,VALID,-0.0169808,VALID,21.4925,VALID,72,VALID,1.79978,
2006-03-03, 00:58:00,VALID,917.204,VALID,0,VALID,85.3272,VALID,-0.0169808,VALID,21.4893,VALID,107,VALID,2.17097,
2006-03-03, 00:59:00,VALID,917.204,VALID,0,VALID,85.4315,VALID,-0.0339617,VALID,21.5572,VALID,149,VALID,1.36537,
2006-03-03, 01:00:00,VALID,917.195,VALID,0,VALID,85.0602,VALID,-0.0169808,VALID,21.5758,VALID,113,VALID,2.06406,
2006-03-03, 01:01:00,VALID,917.18,VALID,0,VALID,84.8211,VALID,0,VALID,21.6019,VALID,109,VALID,2.30174,
2006-03-03, 01:02:00,VALID,917.183,VALID,0,VALID,84.7957,VALID,-0.0169808,VALID,21.5949,VALID,121,VALID,2.28107,
2006-03-03, 01:03:00,VALID,917.172,VALID,0,VALID,84.7842,VALID,-0.0169808,VALID,21.6116,VALID,106,VALID,1.43877,
2006-03-03, 01:04:00,VALID,917.166,VALID,0,VALID,85.2229,VALID,-0.0339617,VALID,21.5957,VALID,103,VALID,1.68003,
2006-03-03, 01:05:00,VALID,917.13,VALID,0,VALID,85.0792,VALID,0,VALID,21.5402,VALID,114,VALID,2.16853,
2006-03-03, 01:06:00,VALID,917.125,VALID,0,VALID,85.5001,VALID,0,VALID,21.5246,VALID,124,VALID,1.48256,
2006-03-03, 01:07:00,VALID,917.117,VALID,0,VALID,85.1619,VALID,0,VALID,21.4917,VALID,127,VALID,1.72332,
2006-03-03, 01:08:00,VALID,917.115,VALID,0,VALID,85.4467,VALID,-0.0169808,VALID,21.4731,VALID,119,VALID,2.50743,
2006-03-03, 01:09:00,VALID,917.107,VALID,0,VALID,84.8415,VALID,-0.0339617,VALID,21.4276,VALID,126,VALID,2.72141,
2006-03-03, 01:10:00,VALID,917.137,VALID,0,VALID,84.8313,VALID,0.0169808,VALID,21.4174,VALID,121,VALID,1.84189,
2006-03-03, 01:11:00,VALID,917.149,VALID,0,VALID,85.1581,VALID,0,VALID,21.4109,VALID,95,VALID,1.80915,
2006-03-03, 01:12:00,VALID,917.157,VALID,0,VALID,84.6901,VALID,-0.0169808,VALID,21.385,VALID,123,VALID,1.96708,
2006-03-03, 01:13:00,VALID,917.149,VALID,0,VALID,84.9178,VALID,0.0169808,VALID,21.398,VALID,117,VALID,1.41902,
2006-03-03, 01:14:00,VALID,917.154,VALID,0,VALID,84.5706,VALID,-0.0169808,VALID,21.3915,VALID,121,VALID,2.15075,
2006-03-03, 01:15:00,VALID,917.151,VALID,0,VALID,84.6482,VALID,0,VALID,21.385,VALID,121,VALID,2.48285,
2006-03-03, 01:16:00,VALID,917.14,VALID,0,VALID,84.2044,VALID,-0.0169808,VALID,21.3888,VALID,121,VALID,2.53089,
2006-03-03, 01:17:00,VALID,917.133,VALID,0,VALID,84.1192,VALID,0,VALID,21.4052,VALID,85,VALID,2.43857,
2006-03-03, 01:18:00,VALID,917.123,VALID,0,VALID,84.4676,VALID,-0.0169808,VALID,21.4279,VALID,71,VALID,1.52065,
2006-03-03, 01:19:00,VALID,917.133,VALID,0,VALID,83.1807,VALID,-0.0509425,VALID,21.4182,VALID,113,VALID,2.94327,
2006-03-03, 01:20:00,VALID,917.081,VALID,0,VALID,82.7191,VALID,-0.0339617,VALID,21.4898,VALID,85,VALID,1.94247,
2006-03-03, 01:21:00,VALID,917.079,VALID,0,VALID,82.8972,VALID,-0.0339617,VALID,21.534,VALID,73,VALID,2.0282,
2006-03-03, 01:22:00,VALID,917.078,VALID,0,VALID,82.4559,VALID,-0.0169808,VALID,21.551,VALID,84,VALID,1.25399,
2006-03-03, 01:23:00,VALID,917.089,VALID,0,VALID,82.6721,VALID,-0.0169808,VALID,21.5572,VALID,125,VALID,1.24638,
2006-03-03, 01:24:00,VALID,917.089,VALID,0,VALID,82.5259,VALID,-0.0169808,VALID,21.5607,VALID,114,VALID,1.83467,
2006-03-03, 01:25:00,VALID,917.078,VALID,0,VALID,82.6518,VALID,-0.0339617,VALID,21.5375,VALID,111,VALID,1.57885,
2006-03-03, 01:26:00,VALID,917.069,VALID,0,VALID,82.9722,VALID,-0.0509425,VALID,21.5348,VALID,119,VALID,1.07467,
2006-03-03, 01:27:00,VALID,917.058,VALID,0,VALID,82.3313,VALID,-0.0169808,VALID,21.5022,VALID,144,VALID,2.80022,
2006-03-03, 01:28:00,VALID,917.074,VALID,0,VALID,82.6365,VALID,-0.0169808,VALID,21.5152,VALID,98,VALID,2.22465,
2006-03-03, 01:29:00,VALID,917.081,VALID,0,VALID,82.5513,VALID,-0.0169808,VALID,21.5219,VALID,112,VALID,1.92541,
2006-03-03, 01:30:00,VALID,917.06,VALID,0,VALID,82.0617,VALID,-0.0339617,VALID,21.5084,VALID,117,VALID,2.89101,
2006-03-03, 01:31:00,VALID,917.06,VALID,0,VALID,81.5722,VALID,-0.0339617,VALID,21.531,VALID,112,VALID,2.61446,
2006-03-03, 01:32:00,VALID,917.055,VALID,0,VALID,81.0877,VALID,-0.0169808,VALID,21.5731,VALID,122,VALID,2.68601,
2006-03-03, 01:33:00,VALID,917.059,VALID,0,VALID,80.5994,VALID,0,VALID,21.6321,VALID,126,VALID,2.22024,
2006-03-03, 01:34:00,VALID,917.058,VALID,0,VALID,81.3433,VALID,-0.0339617,VALID,21.6897,VALID,79,VALID,1.29179,
2006-03-03, 01:35:00,VALID,917.05,VALID,0,VALID,81.2059,VALID,-0.0339617,VALID,21.6835,VALID,103,VALID,1.49858,
2006-03-03, 01:36:00,VALID,917.043,VALID,0,VALID,81.3992,VALID,-0.0339617,VALID,21.6447,VALID,120,VALID,1.85175,
2006-03-03, 01:37:00,VALID,917.04,VALID,0,VALID,81.5811,VALID,-0.0169808,VALID,21.6054,VALID,115,VALID,1.80449,
2006-03-03, 01:38:00,VALID,917.035,VALID,0,VALID,81.6434,VALID,-0.0339617,VALID,21.5572,VALID,111,VALID,1.50142,
2006-03-03, 01:39:00,VALID,917.029,VALID,0,VALID,81.9206,VALID,-0.0679233,VALID,21.541,VALID,104,VALID,1.6646,
2006-03-03, 01:40:00,VALID,917.012,VALID,0,VALID,82.0452,VALID,-0.0509425,VALID,21.5251,VALID,107,VALID,1.90044,
2006-03-03, 01:41:00,VALID,917.011,VALID,0,VALID,82.3631,VALID,-0.0509425,VALID,21.4984,VALID,109,VALID,1.69048,
2006-03-03, 01:42:00,VALID,917.003,VALID,0,VALID,82.4241,VALID,-0.0679233,VALID,21.4734,VALID,97,VALID,1.93733,
2006-03-03, 01:43:00,VALID,917.003,VALID,0,VALID,82.6734,VALID,-0.0679233,VALID,21.4642,VALID,120,VALID,1.72337,
2006-03-03, 01:44:00,VALID,917.01,VALID,0,VALID,83.2113,VALID,-0.0169808,VALID,21.4319,VALID,122,VALID,1.46165,
2006-03-03, 01:45:00,VALID,917.02,VALID,0,VALID,83.5991,VALID,-0.0339617,VALID,21.3767,VALID,123,VALID,1.60501,
2006-03-03, 01:46:00,VALID,917.028,VALID,0,VALID,82.9875,VALID,-0.0169808,VALID,21.3212,VALID,123,VALID,2.00675,
2006-03-03, 01:47:00,VALID,917.029,VALID,0,VALID,82.7548,VALID,-0.0169808,VALID,21.3535,VALID,124,VALID,2.19736,
2006-03-03, 01:48:00,VALID,917.025,VALID,0,VALID,82.8717,VALID,-0.0679233,VALID,21.3926,VALID,121,VALID,1.5625,
2006-03-03, 01:49:00,VALID,917.032,VALID,0,VALID,82.8463,VALID,-0.0169808,VALID,21.4125,VALID,130,VALID,1.86319,
2006-03-03, 01:50:00,VALID,917.042,VALID,0,VALID,83.0281,VALID,-0.0169808,VALID,21.4085,VALID,117,VALID,2.04669,
2006-03-03, 01:51:00,VALID,917.044,VALID,0,VALID,83.4656,VALID,-0.0339617,VALID,21.4125,VALID,122,VALID,1.91425,
2006-03-03, 01:52:00,VALID,917.05,VALID,0,VALID,83.4808,VALID,-0.0509425,VALID,21.3632,VALID,117,VALID,1.49691,
2006-03-03, 01:53:00,VALID,917.045,VALID,0,VALID,83.4834,VALID,-0.0169808,VALID,21.347,VALID,113,VALID,1.59048,
2006-03-03, 01:54:00,VALID,917.049,VALID,0,VALID,83.767,VALID,-0.0339617,VALID,21.3274,VALID,120,VALID,1.84775,
2006-03-03, 01:55:00,VALID,917.033,VALID,0,VALID,83.9526,VALID,-0.0339617,VALID,21.3083,VALID,124,VALID,2.10391,
2006-03-03, 01:56:00,VALID,917.013,VALID,0,VALID,84.2387,VALID,-0.0339617,VALID,21.2854,VALID,89,VALID,1.59059,
2006-03-03, 01:57:00,VALID,917.013,VALID,0,VALID,84.1319,VALID,-0.0339617,VALID,21.2695,VALID,122,VALID,2.02798,
2006-03-03, 01:58:00,VALID,916.996,VALID,0,VALID,84.4638,VALID,-0.0339617,VALID,21.2635,VALID,122,VALID,1.83469,
2006-03-03, 01:59:00,VALID,916.98,VALID,0,VALID,84.7957,VALID,-0.0169808,VALID,21.2441,VALID,145,VALID,1.29528,
2006-03-03, 02:00:00,VALID,916.969,VALID,0,VALID,84.8427,VALID,-0.0679233,VALID,21.2083,VALID,125,VALID,1.54799,
2006-03-03, 02:01:00,VALID,916.951,VALID,0,VALID,84.9025,VALID,-0.0509425,VALID,21.1824,VALID,125,VALID,1.66225,
2006-03-03, 02:02:00,VALID,916.945,VALID,0,VALID,84.9292,VALID,-0.0169808,VALID,21.1566,VALID,120,VALID,1.82031,
2006-03-03, 02:03:00,VALID,916.934,VALID,0,VALID,85.0894,VALID,0,VALID,21.1695,VALID,120,VALID,1.08825,
2006-03-03, 02:04:00,VALID,916.913,VALID,0,VALID,84.6774,VALID,-0.0339617,VALID,21.1625,VALID,127,VALID,1.99945,
2006-03-03, 02:05:00,VALID,916.908,VALID,0,VALID,84.7143,VALID,-0.0339617,VALID,21.208,VALID,130,VALID,1.45293,
2006-03-03, 02:06:00,VALID,916.891,VALID,0,VALID,84.7194,VALID,-0.0169808,VALID,21.2312,VALID,128,VALID,1.39291,
2006-03-03, 02:07:00,VALID,916.889,VALID,0,VALID,84.9012,VALID,-0.0509425,VALID,21.2247,VALID,132,VALID,1.22783,
2006-03-03, 02:08:00,VALID,916.875,VALID,0,VALID,84.9165,VALID,-0.0169808,VALID,21.2078,VALID,119,VALID,1.70573,
2006-03-03, 02:09:00,VALID,916.884,VALID,0,VALID,84.8402,VALID,-0.0169808,VALID,21.1986,VALID,122,VALID,1.59431,
2006-03-03, 02:10:00,VALID,916.879,VALID,0,VALID,85.0983,VALID,0,VALID,21.2053,VALID,97,VALID,1.2718,
2006-03-03, 02:11:00,VALID,916.859,VALID,0,VALID,85.1975,VALID,-0.0679233,VALID,21.1886,VALID,103,VALID,1.54353,
2006-03-03, 02:12:00,VALID,916.83,VALID,0,VALID,85.0882,VALID,-0.0339617,VALID,21.1789,VALID,118,VALID,1.51543,
2006-03-03, 02:13:00,VALID,916.809,VALID,0,VALID,85.1517,VALID,-0.0509425,VALID,21.176,VALID,131,VALID,1.42624,
2006-03-03, 02:14:00,VALID,916.792,VALID,0,VALID,85.1187,VALID,-0.0339617,VALID,21.1857,VALID,127,VALID,1.09696,
2006-03-03, 02:15:00,VALID,916.77,VALID,0,VALID,85.3221,VALID,-0.0509425,VALID,21.1889,VALID,121,VALID,1.19386,
2006-03-03, 02:16:00,VALID,916.779,VALID,0,VALID,85.6171,VALID,-0.0509425,VALID,21.1595,VALID,130,VALID,1.06803,
2006-03-03, 02:17:00,VALID,916.775,VALID,0,VALID,85.5981,VALID,-0.0339617,VALID,21.1342,VALID,133,VALID,1.06479,
2006-03-03, 02:18:00,VALID,916.785,VALID,0,VALID,85.5078,VALID,-0.0339617,VALID,21.1049,VALID,123,VALID,0.714286,
2006-03-03, 02:19:00,VALID,916.78,VALID,0,VALID,85.2802,VALID,-0.0169808,VALID,21.1151,VALID,136,VALID,0.684048,
2006-03-03, 02:20:00,VALID,916.786,VALID,0,VALID,85.5637,VALID,-0.0339617,VALID,21.1474,VALID,121,VALID,0.658507,
2006-03-03, 02:21:00,VALID,916.776,VALID,0,VALID,85.7049,VALID,-0.0679233,VALID,21.1409,VALID,141,VALID,0.957304,
2006-03-03, 02:22:00,VALID,916.784,VALID,0,VALID,85.8664,VALID,-0.0849042,VALID,21.1216,VALID,131,VALID,0.959028,
2006-03-03, 02:23:00,VALID,916.792,VALID,0,VALID,86.0838,VALID,0.0339617,VALID,21.1035,VALID,146,VALID,0.804888,
2006-03-03, 02:24:00,VALID,916.818,VALID,0,VALID,86.2555,VALID,0.0679233,VALID,21.0876,VALID,135,VALID,1.06694,
2006-03-03, 02:25:00,VALID,916.835,VALID,0,VALID,86.2428,VALID,0.0679233,VALID,21.0618,VALID,139,VALID,1.04859,
2006-03-03, 02:26:00,VALID,916.846,VALID,0,VALID,86.225,VALID,0.0509425,VALID,21.051,VALID,135,VALID,1.10137,
2006-03-03, 02:27:00,VALID,916.843,VALID,0,VALID,86.0991,VALID,0,VALID,21.0488,VALID,137,VALID,1.06603,
2006-03-03, 02:28:00,VALID,916.85,VALID,0,VALID,86.2364,VALID,0.0339617,VALID,21.0615,VALID,121,VALID,0.574314,
2006-03-03, 02:29:00,VALID,916.844,VALID,0,VALID,86.2517,VALID,0.0679233,VALID,21.0779,VALID,111,VALID,0.85103,
2006-03-03, 02:30:00,VALID,916.836,VALID,0,VALID,86.0597,VALID,0.0679233,VALID,21.0583,VALID,117,VALID,1.12908,
2006-03-03, 02:31:00,VALID,916.828,VALID,0,VALID,85.9516,VALID,0.0849042,VALID,21.068,VALID,117,VALID,1.26296,
2006-03-03, 02:32:00,VALID,916.803,VALID,0,VALID,86.0177,VALID,0.0679233,VALID,21.0674,VALID,126,VALID,1.18038,
2006-03-03, 02:33:00,VALID,916.792,VALID,0,VALID,86.0431,VALID,0.0339617,VALID,21.0712,VALID,129,VALID,1.1029,
2006-03-03, 02:34:00,VALID,916.772,VALID,0,VALID,86.0813,VALID,0.0509425,VALID,21.0844,VALID,122,VALID,1.36991,
2006-03-03, 02:35:00,VALID,916.77,VALID,0,VALID,85.9808,VALID,0.0169808,VALID,21.0812,VALID,122,VALID,1.35865,
2006-03-03, 02:36:00,VALID,916.771,VALID,0,VALID,85.9478,VALID,0.0339617,VALID,21.0944,VALID,121,VALID,1.41334,
2006-03-03, 02:37:00,VALID,916.775,VALID,0,VALID,85.8587,VALID,0.0679233,VALID,21.0839,VALID,112,VALID,1.14755,
2006-03-03, 02:38:00,VALID,916.773,VALID,0,VALID,85.9211,VALID,0.0169808,VALID,21.0814,VALID,103,VALID,1.18117,
2006-03-03, 02:39:00,VALID,916.781,VALID,0,VALID,85.9109,VALID,0.0679233,VALID,21.0459,VALID,107,VALID,1.33767,
2006-03-03, 02:40:00,VALID,916.801,VALID,0,VALID,85.8778,VALID,0.0339617,VALID,21.0424,VALID,121,VALID,1.7035,
2006-03-03, 02:41:00,VALID,916.817,VALID,0,VALID,86.1436,VALID,0.0509425,VALID,21.055,VALID,117,VALID,1.56486,
2006-03-03, 02:42:00,VALID,916.829,VALID,0,VALID,86.3788,VALID,0.0339617,VALID,21.055,VALID,121,VALID,1.25707,
2006-03-03, 02:43:00,VALID,916.842,VALID,0,VALID,86.5034,VALID,0.0509425,VALID,21.0198,VALID,110,VALID,1.6131,
2006-03-03, 02:44:00,VALID,916.848,VALID,0,VALID,86.5696,VALID,0.0339617,VALID,20.9713,VALID,114,VALID,1.58687,
2006-03-03, 02:45:00,VALID,916.842,VALID,0,VALID,86.6878,VALID,0.0339617,VALID,20.9548,VALID,128,VALID,1.44643,
2006-03-03, 02:46:00,VALID,916.841,VALID,0,VALID,86.8264,VALID,0.0679233,VALID,20.9424,VALID,117,VALID,1.16951,
2006-03-03, 02:47:00,VALID,916.822,VALID,0,VALID,86.8124,VALID,0.0679233,VALID,20.932,VALID,121,VALID,1.57565,
2006-03-03, 02:48:00,VALID,916.812,VALID,0,VALID,87.0388,VALID,0.0849042,VALID,20.9193,VALID,118,VALID,1.61068,
2006-03-03, 02:49:00,VALID,916.804,VALID,0,VALID,86.9956,VALID,0.0509425,VALID,20.9037,VALID,112,VALID,1.72173,
2006-03-03, 02:50:00,VALID,916.799,VALID,0,VALID,86.6166,VALID,0.0169808,VALID,20.9389,VALID,122,VALID,1.44549,
2006-03-03, 02:51:00,VALID,916.783,VALID,0,VALID,86.5034,VALID,0.0509425,VALID,20.9831,VALID,133,VALID,2.1935,
2006-03-03, 02:52:00,VALID,916.806,VALID,0,VALID,86.506,VALID,0.0169808,VALID,21.0357,VALID,98,VALID,2.09914,
2006-03-03, 02:53:00,VALID,916.811,VALID,0,VALID,86.1677,VALID,-0.0339617,VALID,21.0523,VALID,114,VALID,2.19815,
2006-03-03, 02:54:00,VALID,916.823,VALID,0,VALID,86.0164,VALID,-0.0509425,VALID,21.1116,VALID,117,VALID,1.88704,
2006-03-03, 02:55:00,VALID,916.82,VALID,0,VALID,86.0101,VALID,-0.0509425,VALID,21.1375,VALID,119,VALID,1.73819,
2006-03-03, 02:56:00,VALID,916.825,VALID,0,VALID,86.08,VALID,-0.0509425,VALID,21.1442,VALID,125,VALID,1.94627,
2006-03-03, 02:57:00,VALID,916.821,VALID,0,VALID,86.2097,VALID,-0.0339617,VALID,21.128,VALID,126,VALID,1.33648,
2006-03-03, 02:58:00,VALID,916.83,VALID,0,VALID,86.3305,VALID,-0.0509425,VALID,21.1089,VALID,129,VALID,2.10385,
2006-03-03, 02:59:00,VALID,916.819,VALID,0,VALID,86.3623,VALID,-0.0339617,VALID,21.1022,VALID,124,VALID,2.31901,
2006-03-03, 03:00:00,VALID,916.826,VALID,0,VALID,86.5416,VALID,-0.0679233,VALID,21.0892,VALID,118,VALID,1.82552,
2006-03-03, 03:01:00,VALID,916.819,VALID,0,VALID,86.5874,VALID,-0.0679233,VALID,21.0736,VALID,116,VALID,2.23074,
2006-03-03, 03:02:00,VALID,916.815,VALID,0,VALID,86.7336,VALID,-0.0679233,VALID,21.0607,VALID,114,VALID,1.88929,
2006-03-03, 03:03:00,VALID,916.811,VALID,0,VALID,86.8824,VALID,-0.0339617,VALID,21.0407,VALID,118,VALID,2.12576,
2006-03-03, 03:04:00,VALID,916.823,VALID,0,VALID,87.1698,VALID,-0.0169808,VALID,21.0221,VALID,106,VALID,1.47675,
2006-03-03, 03:05:00,VALID,916.809,VALID,0,VALID,87.391,VALID,-0.0509425,VALID,20.9796,VALID,133,VALID,1.39602,
2006-03-03, 03:06:00,VALID,916.809,VALID,0,VALID,87.2715,VALID,-0.0679233,VALID,20.9475,VALID,133,VALID,2.12951,
2006-03-03, 03:07:00,VALID,916.801,VALID,0,VALID,87.2295,VALID,-0.0509425,VALID,20.9408,VALID,135,VALID,2.03212,
2006-03-03, 03:08:00,VALID,916.785,VALID,0,VALID,87.035,VALID,0,VALID,20.9632,VALID,138,VALID,2.44327,
2006-03-03, 03:09:00,VALID,916.771,VALID,0,VALID,86.9765,VALID,0,VALID,20.9952,VALID,129,VALID,2.31771,
2006-03-03, 03:10:00,VALID,916.755,VALID,0,VALID,87.0731,VALID,0.0339617,VALID,21.0081,VALID,142,VALID,1.70967,
2006-03-03, 03:11:00,VALID,916.763,VALID,0,VALID,87.1278,VALID,0.0169808,VALID,20.9982,VALID,124,VALID,1.84165,
2006-03-03, 03:12:00,VALID,916.763,VALID,0,VALID,87.1456,VALID,0,VALID,20.9992,VALID,140,VALID,1.59854,
2006-03-03, 03:13:00,VALID,916.753,VALID,0,VALID,87.2473,VALID,0.0339617,VALID,20.989,VALID,140,VALID,1.82758,
2006-03-03, 03:14:00,VALID,916.755,VALID,0,VALID,87.3084,VALID,0.0169808,VALID,20.9893,VALID,140,VALID,2.38246,
2006-03-03, 03:15:00,VALID,916.753,VALID,0,VALID,87.171,VALID,0.0509425,VALID,20.9922,VALID,129,VALID,2.17151,
2006-03-03, 03:16:00,VALID,916.752,VALID,0,VALID,87.007,VALID,0,VALID,21.0019,VALID,148,VALID,1.80646,
2006-03-03, 03:17:00,VALID,916.757,VALID,0,VALID,86.6738,VALID,0.0169808,VALID,21.0442,VALID,129,VALID,2.12786,
2006-03-03, 03:18:00,VALID,916.732,VALID,0,VALID,86.5187,VALID,0,VALID,21.0798,VALID,130,VALID,2.31094,
2006-03-03, 03:19:00,VALID,916.734,VALID,0,VALID,86.333,VALID,-0.0169808,VALID,21.1186,VALID,149,VALID,2.13948,
2006-03-03, 03:20:00,VALID,916.734,VALID,0,VALID,86.2021,VALID,0.0169808,VALID,21.1375,VALID,147,VALID,2.15217,
2006-03-03, 03:21:00,VALID,916.726,VALID,0,VALID,86.328,VALID,0.0169808,VALID,21.1571,VALID,137,VALID,1.36337,
2006-03-03, 03:22:00,VALID,916.728,VALID,0,VALID,86.4297,VALID,0.0169808,VALID,21.1603,VALID,143,VALID,1.44052,
2006-03-03, 03:23:00,VALID,916.728,VALID,0,VALID,86.3445,VALID,0,VALID,21.1383,VALID,146,VALID,2.07958,
2006-03-03, 03:24:00,VALID,916.717,VALID,0,VALID,86.4246,VALID,0,VALID,21.1216,VALID,148,VALID,1.64672,
2006-03-03, 03:25:00,VALID,916.7,VALID,0,VALID,86.3763,VALID,0,VALID,21.1189,VALID,143,VALID,1.5718,
2006-03-03, 03:26:00,VALID,916.697,VALID,0,VALID,86.4055,VALID,-0.0169808,VALID,21.1286,VALID,144,VALID,2.39539,
2006-03-03, 03:27:00,VALID,916.703,VALID,0,VALID,86.2695,VALID,0.0339617,VALID,21.1313,VALID,137,VALID,2.59598,
2006-03-03, 03:28:00,VALID,916.711,VALID,0,VALID,86.2517,VALID,0.0169808,VALID,21.1471,VALID,134,VALID,1.31771,
2006-03-03, 03:29:00,VALID,916.705,VALID,0,VALID,86.3114,VALID,0.0169808,VALID,21.1673,VALID,144,VALID,1.51543,
2006-03-03, 03:30:00,VALID,916.704,VALID,0,VALID,86.4322,VALID,0.0339617,VALID,21.1469,VALID,122,VALID,1.16915,
2006-03-03, 03:31:00,VALID,916.694,VALID,0,VALID,86.5149,VALID,0.0339617,VALID,21.1377,VALID,103,VALID,1.53715,
2006-03-03, 03:32:00,VALID,916.686,VALID,0,VALID,86.5034,VALID,0.0339617,VALID,21.1084,VALID,124,VALID,1.84043,
2006-03-03, 03:33:00,VALID,916.683,VALID,0,VALID,86.5022,VALID,0.0339617,VALID,21.0992,VALID,137,VALID,1.72135,
2006-03-03, 03:34:00,VALID,916.692,VALID,0,VALID,86.759,VALID,0.0509425,VALID,21.1024,VALID,105,VALID,1.13953,